Change the Weather History Date:

Thursday, May 23, 2013

  Actual Average (KLWD) Record (KLWD)
Temperature  
Mean Temperature 60 °F 64 °F  
Max Temperature 68 °F 74 °F 90 °F (1967)
Min Temperature 51 °F 53 °F 38 °F (1963)
Degree Days  
Heating Degree Days 6 4  
Month to date heating degree days 144  
Since 1 July heating degree days 6039  
Cooling Degree Days 0 2  
Month to date cooling degree days 26  
Year to date cooling degree days 33  
Growing Degree Days 10 (Base 50)    
Moisture  
Dew Point 48 °F    
Average Humidity 71    
Maximum Humidity 92    
Minimum Humidity 40    
Precipitation  
Precipitation 0.00 in 0.19 in 0.97 in (2008)
Month to date precipitation 3.88  
Sea Level Pressure  
Sea Level Pressure 30.11 in    
Wind  
Wind Speed 10 mph (North)    
Max Wind Speed 16 mph    
Max Gust Speed 21 mph    
Visibility 10 miles    
Events      
T = Trace of Precipitation, MM = Missing Value Source: NWS Daily Summary

Daily Weather History Graph

Daily Weather History Graph

Search for Another Location

Airport or City:

Trip Planner

Search our weather history database for the weather conditions in past years. The results will help you decide how hot, cold, wet, or windy it might be!

Date:

Astronomy

May. 23, 2013 Rise Set
Actual Time 5:49 AM CDT 8:33 PM CDT
Civil Twilight 5:17 AM CDT 9:05 PM CDT
Nautical Twilight 4:37 AM CDT 9:46 PM CDT
Astronomical Twilight 3:51 AM CDT 10:32 PM CDT
Moon 7:06 PM CDT (5/23) 4:36 AM CDT (5/23)
Length of Visible Light 15h 48m
Length of Day
14h 43m
Waxing Gibbous, 97% of the Moon is Illuminated
May 23
Waxing Gibbous
May 24
Full
May 31
Last Quarter
Jun 8
New
Jun 16
First Quarter

Hourly Weather History & Observations

Time (CDT) Temp. Dew Point Humidity Pressure Visibility Wind Dir Wind Speed Gust Speed Precip Events Conditions
12:15 AM 53.2 °F 48.4 °F 84% 29.90 in 10.0 mi WNW 11.5 mph 16.1 mph N/A   Overcast
12:35 AM 52.7 °F 48.4 °F 85% 29.91 in 10.0 mi WNW 11.5 mph 16.1 mph N/A   Overcast
12:55 AM 52.7 °F 48.7 °F 86% 29.91 in 10.0 mi WNW 13.8 mph - N/A   Overcast
1:15 AM 52.7 °F 48.9 °F 87% 29.91 in 10.0 mi WNW 13.8 mph 17.3 mph N/A   Overcast
1:35 AM 52.7 °F 49.1 °F 88% 29.92 in 10.0 mi WNW 10.4 mph - N/A   Overcast
1:55 AM 52.7 °F 49.1 °F 88% 29.92 in 10.0 mi WNW 10.4 mph - N/A   Overcast
2:15 AM 52.7 °F 49.1 °F 88% 29.91 in 10.0 mi WNW 11.5 mph - N/A   Overcast
2:35 AM 52.7 °F 49.3 °F 88% 29.92 in 10.0 mi NW 9.2 mph 17.3 mph N/A   Overcast
2:55 AM 52.0 °F 49.3 °F 90% 29.93 in 5.0 mi NW 10.4 mph 18.4 mph N/A   Overcast
3:15 AM 51.8 °F 49.3 °F 91% 29.94 in 7.0 mi NW 12.7 mph 19.6 mph N/A   Overcast
3:35 AM 52.2 °F 49.1 °F 89% 29.94 in 10.0 mi NW 9.2 mph - N/A   Overcast
3:55 AM 52.2 °F 49.1 °F 89% 29.95 in 10.0 mi NW 9.2 mph 17.3 mph N/A   Overcast
4:15 AM 52.0 °F 49.1 °F 90% 29.96 in 7.0 mi WNW 9.2 mph - N/A   Overcast
4:35 AM 51.8 °F 49.1 °F 90% 29.97 in 10.0 mi NW 9.2 mph 18.4 mph N/A   Overcast
4:55 AM 51.4 °F 49.1 °F 92% 29.98 in 3.0 mi NW 10.4 mph 18.4 mph N/A   Overcast
5:15 AM 51.3 °F 49.1 °F 92% 29.99 in 10.0 mi NW 12.7 mph 17.3 mph N/A   Overcast
5:35 AM 51.3 °F 48.9 °F 92% 30.00 in 10.0 mi NW 9.2 mph - N/A   Overcast
5:55 AM 51.3 °F 48.6 °F 90% 30.01 in 10.0 mi NNW 11.5 mph 18.4 mph N/A   Overcast
6:15 AM 51.3 °F 48.6 °F 90% 30.02 in 10.0 mi NW 12.7 mph - N/A   Overcast
6:35 AM 51.3 °F 48.4 °F 90% 30.03 in 10.0 mi NNW 13.8 mph 20.7 mph N/A   Overcast
6:55 AM 51.8 °F 48.6 °F 89% 30.04 in 10.0 mi NW 10.4 mph - N/A   Overcast
7:15 AM 51.8 °F 48.6 °F 89% 30.06 in 10.0 mi NNW 9.2 mph 16.1 mph N/A   Overcast
7:35 AM 52.0 °F 48.7 °F 89% 30.07 in 10.0 mi NNW 9.2 mph - N/A   Overcast
7:55 AM 52.5 °F 49.1 °F 88% 30.07 in 10.0 mi NNW 9.2 mph - N/A   Overcast
8:15 AM 52.7 °F 49.3 °F 88% 30.09 in 10.0 mi NNW 11.5 mph - N/A   Overcast
8:35 AM 53.1 °F 49.3 °F 87% 30.10 in 10.0 mi North 12.7 mph - N/A   Overcast
8:55 AM 53.8 °F 49.5 °F 85% 30.10 in 10.0 mi North 9.2 mph 18.4 mph N/A   Overcast
9:15 AM 54.5 °F 49.3 °F 83% 30.11 in 10.0 mi North 11.5 mph 18.4 mph N/A   Overcast
9:35 AM 55.4 °F 49.6 °F 81% 30.12 in 10.0 mi NNE 11.5 mph 17.3 mph N/A   Overcast
9:55 AM 54.9 °F 49.1 °F 81% 30.13 in 10.0 mi North 11.5 mph - N/A   Overcast
10:15 AM 55.4 °F 49.3 °F 80% 30.14 in 10.0 mi North 12.7 mph - N/A   Overcast
10:35 AM 55.4 °F 49.8 °F 81% 30.14 in 10.0 mi NNW 12.7 mph - N/A   Overcast
10:55 AM 56.3 °F 49.5 °F 78% 30.14 in 10.0 mi North 13.8 mph - N/A   Overcast
11:15 AM 56.3 °F 49.8 °F 79% 30.15 in 10.0 mi North 9.2 mph 17.3 mph N/A   Overcast
11:35 AM 58.3 °F 50.4 °F 75% 30.15 in 10.0 mi North 12.7 mph 18.4 mph N/A   Overcast
11:55 AM 59.0 °F 49.6 °F 71% 30.15 in 10.0 mi North 11.5 mph 19.6 mph N/A   Overcast
12:15 PM 61.9 °F 50.9 °F 67% 30.16 in 10.0 mi North 11.5 mph 18.4 mph N/A   Mostly Cloudy
12:35 PM 62.2 °F 50.7 °F 66% 30.15 in 10.0 mi North 11.5 mph - N/A   Mostly Cloudy
12:55 PM 64.4 °F 52.0 °F 64% 30.16 in 10.0 mi NNE 16.1 mph 20.7 mph N/A   Mostly Cloudy
1:15 PM 64.6 °F 50.7 °F 61% 30.16 in 10.0 mi NNE 16.1 mph 20.7 mph N/A   Mostly Cloudy
1:35 PM 66.0 °F 50.4 °F 57% 30.18 in 10.0 mi NNE 12.7 mph 18.4 mph N/A   Scattered Clouds
1:55 PM 65.1 °F 49.5 °F 57% 30.17 in 10.0 mi NNE 13.8 mph 19.6 mph N/A   Mostly Cloudy
2:15 PM 66.9 °F 49.5 °F 53% 30.17 in 10.0 mi North 9.2 mph - N/A   Scattered Clouds
2:35 PM 65.3 °F 48.2 °F 54% 30.18 in 10.0 mi North 11.5 mph 17.3 mph N/A   Mostly Cloudy
2:55 PM 67.6 °F 50.0 °F 53% 30.17 in 10.0 mi NE 11.5 mph 17.3 mph N/A   Scattered Clouds
3:15 PM 67.5 °F 48.2 °F 50% 30.16 in 10.0 mi NNE 12.7 mph 20.7 mph N/A   Scattered Clouds
3:35 PM 68.0 °F 47.7 °F 48% 30.16 in 10.0 mi NNE 12.7 mph 18.4 mph N/A   Scattered Clouds
3:55 PM 66.0 °F 47.5 °F 51% 30.17 in 10.0 mi NE 9.2 mph 18.4 mph N/A   Scattered Clouds
4:15 PM 68.4 °F 47.3 °F 47% 30.18 in 10.0 mi NNE 12.7 mph 17.3 mph N/A   Scattered Clouds
4:35 PM 68.0 °F 45.1 °F 44% 30.18 in 10.0 mi North 8.1 mph - N/A   Clear
4:55 PM 68.7 °F 47.1 °F 46% 30.18 in 10.0 mi NNE 8.1 mph - N/A   Clear
5:15 PM 67.3 °F 44.8 °F 44% 30.18 in 10.0 mi NNE 8.1 mph - N/A   Scattered Clouds
5:35 PM 68.0 °F 42.8 °F 40% 30.18 in 10.0 mi North 3.5 mph - N/A   Scattered Clouds
5:55 PM 66.7 °F 45.1 °F 46% 30.19 in 10.0 mi NNE 5.8 mph - N/A   Scattered Clouds
6:15 PM 67.6 °F 42.8 °F 41% 30.19 in 10.0 mi North 6.9 mph - N/A   Clear
6:35 PM 67.6 °F 42.6 °F 40% 30.19 in 10.0 mi NNE 8.1 mph - N/A   Clear
6:55 PM 67.1 °F 43.0 °F 42% 30.19 in 10.0 mi NE 5.8 mph - N/A   Clear
7:15 PM 66.6 °F 45.0 °F 46% 30.20 in 10.0 mi NNE 5.8 mph - N/A   Clear
7:35 PM 65.5 °F 44.8 °F 47% 30.20 in 10.0 mi NNE 4.6 mph - N/A   Clear
7:55 PM 64.0 °F 46.0 °F 52% 30.20 in 10.0 mi NNE 4.6 mph - N/A   Clear
8:15 PM 61.9 °F 46.9 °F 58% 30.21 in 10.0 mi North 4.6 mph - N/A   Clear
8:35 PM 59.9 °F 45.9 °F 60% 30.20 in 10.0 mi NNE 5.8 mph - N/A   Clear
8:55 PM 58.1 °F 45.5 °F 63% 30.21 in 10.0 mi NNE 4.6 mph - N/A   Clear
9:15 PM 56.1 °F 45.9 °F 68% 30.21 in 10.0 mi North 4.6 mph - N/A   Clear
9:35 PM 56.5 °F 45.1 °F 66% 30.21 in 10.0 mi NNE 3.5 mph - N/A   Clear
9:55 PM 55.8 °F 44.4 °F 66% 30.22 in 10.0 mi NNE 5.8 mph - N/A   Clear
10:15 PM 54.0 °F 44.8 °F 71% 30.23 in 10.0 mi NE 5.8 mph - N/A   Clear
10:35 PM 53.8 °F 44.6 °F 71% 30.23 in 10.0 mi NNE 6.9 mph - N/A   Clear
10:55 PM 53.6 °F 44.4 °F 71% 30.24 in 10.0 mi NE 3.5 mph - N/A   Clear
11:15 PM 52.5 °F 43.7 °F 72% 30.25 in 10.0 mi NNE 3.5 mph - N/A   Clear
11:35 PM 52.3 °F 43.7 °F 72% 30.25 in 10.0 mi NNE 5.8 mph - N/A   Clear
11:55 PM 51.1 °F 43.7 °F 76% 30.26 in 10.0 mi NE 4.6 mph - N/A   Clear